Lid_Strength_Index
8 8 8 8 9 8 9 9 11 10 9 8 7 7 6 5 6 6 6 5 5 5 6 5 7 7 7 7 6 6 6 7 6 6 6 5 5 4 4 3 3 3 3 3
10 9 8 9 8 8 8 9 9 9 9 6 5 5 5 6 6 6 6 5 5 6 6 8 8 8 7 6 6 6 7 6 6 5 5 5 5 4 3 3 3 2 3 3
11 9 9 11 9 9 8 8 8 10 8 6 7 6 6 6 6 6 5 5 6 7 8 8 7 7 6 6 6 6 7 7 6 6 5 6 6 5 5 4 4 5 5 5
11 10 16 10 7 7 8 7 7 7 7 6 6 5 5 5 5 5 6 6 7 8 8 8 7 6 7 6 7 7 7 7 6 6 6 6 6 7 6 6 6 6 6 5
14 13 10 10 8 9 9 9 6 7 6 6 5 5 5 5 5 6 7 6 7 7 8 7 7 7 7 7 7 7 8 8 7 7 7 7 7 7 7 7 7 6 5 5
12 16 16 10 7 5 6 11 5 6 6 6 5 9 6 6 6 6 6 7 7 8 7 7 7 7 7 7 8 8 8 7 7 7 7 7 7 7 7 7 5 4 4 3
12 14 10 7 6 5 12 10 5 5 5 5 7 5 6 6 6 6 7 8 8 8 8 8 7 7 8 8 8 8 7 7 7 7 7 6 6 6 5 3 3 3 3 2
11 13 16 5 6 11 7 5 5 5 5 5 5 6 6 6 6 7 8 9 8 8 7 7 7 8 8 8 7 7 6 7 6 5 4 5 4 3 3 3 3 3 3 3
11 10 6 4 5 4 4 5 5 4 4 5 6 7 6 7 7 9 9 8 7 7 8 7 7 7 8 7 7 7 6 5 5 5 5 4 4 4 4 3 4 4 5 5
9 7 6 5 4 4 3 4 3 3 4 6 6 6 7 7 8 9 8 7 7 7 8 8 7 6 6 6 6 5 6 5 5 5 5 4 5 5 6 5 5 5 5 5
8 7 6 5 4 4 3 3 4 4 5 6 6 6 7 8 9 8 7 7 7 8 8 7 6 5 5 5 5 5 5 5 5 5 5 5 7 7 6 7 8 6 5 5
9 5 5 5 4 3 4 4 4 5 6 6 5 7 7 8 8 7 7 7 7 6 5 5 5 5 5 5 5 5 6 6 6 6 6 5 5 6 10 10 10 11 10 9
5 4 4 4 3 3 3 4 4 5 6 6 6 6 7 8 7 7 6 7 5 5 5 5 6 6 5 5 5 5 6 6 6 6 6 6 5 6 5 8 10 10 10 10
3 4 5 4 5 3 3 4 5 6 5 6 6 6 6 7 7 6 6 5 5 5 5 6 6 6 5 5 5 5 5 10 6 6 6 6 5 5 5 5 5 5 9 8
4 3 3 3 3 4 4 4 6 6 7 6 6 7 7 7 7 6 6 5 5 5 6 6 6 6 5 5 5 5 6 6 6 6 6 6 5 5 5 5 5 6 5 6
3 3 3 4 4 4 5 5 7 7 7 6 6 7 6 7 6 6 5 5 5 6 5 5 5 5 4 4 5 4 5 10 8 6 6 5 5 5 5 5 5 5 5 5
5 5 4 4 4 5 5 5 6 6 6 6 6 7 7 7 6 5 5 4 5 4 4 5 5 5 4 4 4 4 4 6 9 5 6 5 5 5 5 5 5 4 4 5
2 2 2 3 4 4 5 5 6 6 6 5 6 7 7 7 6 5 5 4 4 4 4 4 4 4 4 4 4 4 4 5 5 5 5 5 5 4 4 4 4 3 3 4
2 3 3 3 4 4 5 6 6 5 5 5 7 7 7 5 5 4 4 4 5 5 4 3 8 6 3 5 7 5 4 5 5 4 5 7 4 4 3 3 3 3 3 3
3 3 3 4 4 5 4 5 5 5 5 5 6 7 7 5 4 4 4 4 4 3 2 3 3 3 3 4 8 5 4 4 5 5 5 4 3 3 3 6 3 3 3 2
3 4 5 5 5 4 4 5 5 5 5 5 5 7 7 6 5 4 4 5 3 3 3 5 3 3 3 6 6 4 4 4 4 4 4 4 2 2 2 2 2 2 2 2
3 4 5 5 5 4 3 4 5 5 5 5 5 6 7 6 5 4 3 4 3 9 4 2 2 9 6 12 4 4 3 3 3 4 3 3 2 2 2 2 2 2 2 2
4 5 5 5 5 4 4 4 5 4 5 5 5 6 7 6 5 6 6 3 2 6 3 2 9 11 12 4 2 3 4 3 3 4 4 3 2 2 2 2 2 1 1 1
4 4 4 4 3 4 4 5 5 4 4 4 5 6 7 7 6 4 4 7 9 7 3 3 6 12 14 2 2 2 3 2 2 4 3 9 2 1 1 2 1 1 0 2
4 4 4 4 4 4 4 5 5 4 4 5 6 6 5 5 4 4 6 4 9 6 3 11 11 11 4 3 3 3 3 3 4 4 3 2 2 2 1 1 1 1 1 0
4 4 4 4 4 4 3 5 6 5 5 5 6 6 5 5 4 6 4 6 3 6 3 3 3 3 2 3 3 3 3 3 3 3 3 1 1 1 1 1 1 0 0 0
4 6 5 5 5 5 5 6 7 6 5 4 6 6 5 6 6 5 6 4 4 3 3 3 3 4 3 3 3 2 2 3 7 3 2 1 1 1 1 1 1 0 0 0